TimeEDT,TemperatureF,Dew PointF,Humidity,Sea Level PressureIn,VisibilityMPH,Wind Direction,Wind SpeedMPH,Gust SpeedMPH,PrecipitationIn,Events,Conditions,WindDirDegrees,DateUTC
12:54 AM,46.4,42.8,87,29.74,3.0,North,3.5,-,N/A,Rain,Light Rain,10,2014-04-26 04:54:00
1:47 AM,46.0,44.1,93,29.73,4.0,NW,3.5,-,0.01,Rain,Light Rain,320,2014-04-26 05:47:00
1:54 AM,46.0,44.1,93,29.73,4.0,NW,3.5,-,0.01,Rain,Light Rain,320,2014-04-26 05:54:00
2:54 AM,46.9,44.1,90,29.73,6.0,Calm,Calm,-,0.00,,Overcast,0,2014-04-26 06:54:00
3:54 AM,48.0,41.0,77,29.75,10.0,WNW,11.5,-,N/A,,Overcast,290,2014-04-26 07:54:00
4:54 AM,46.9,39.0,74,29.77,10.0,West,9.2,-,N/A,,Scattered Clouds,280,2014-04-26 08:54:00
5:54 AM,44.1,37.9,79,29.78,10.0,WNW,5.8,-,N/A,,Clear,300,2014-04-26 09:54:00
6:54 AM,44.1,37.9,79,29.81,10.0,West,4.6,-,N/A,,Clear,270,2014-04-26 10:54:00
7:54 AM,48.0,39.0,71,29.83,10.0,West,16.1,-,N/A,,Clear,270,2014-04-26 11:54:00
8:54 AM,50.0,39.9,68,29.84,10.0,West,11.5,-,N/A,,Clear,260,2014-04-26 12:54:00
9:54 AM,53.6,39.2,58,29.81,10.0,WSW,8.1,-,N/A,,Clear,250,2014-04-26 13:54:00
10:54 AM,57.9,41.0,53,29.78,10.0,Variable,4.6,-,N/A,,Clear,0,2014-04-26 14:54:00
11:54 AM,64.9,43.0,45,29.74,10.0,West,11.5,18.4,N/A,,Clear,280,2014-04-26 15:54:00
12:54 PM,64.0,39.9,41,29.72,10.0,West,12.7,23.0,N/A,,Mostly Cloudy,270,2014-04-26 16:54:00
1:54 PM,66.0,39.0,37,29.69,10.0,West,10.4,19.6,0.00,,Mostly Cloudy,280,2014-04-26 17:54:00
2:54 PM,68.0,35.1,30,29.68,10.0,West,18.4,32.2,N/A,,Mostly Cloudy,260,2014-04-26 18:54:00
3:54 PM,68.0,33.1,27,29.66,10.0,West,21.9,31.1,N/A,,Mostly Cloudy,260,2014-04-26 19:54:00
4:54 PM,68.0,32.0,26,29.69,10.0,West,19.6,31.1,N/A,,Mostly Cloudy,280,2014-04-26 20:54:00
5:54 PM,64.0,26.1,24,29.74,10.0,NW,27.6,39.1,N/A,,Clear,310,2014-04-26 21:54:00
6:54 PM,62.1,25.0,24,29.80,10.0,WNW,17.3,26.5,N/A,,Clear,290,2014-04-26 22:54:00
7:54 PM,55.0,28.9,37,29.86,10.0,NNW,15.0,28.8,N/A,,Clear,330,2014-04-26 23:54:00
8:54 PM,51.1,28.9,43,29.91,10.0,NNW,13.8,21.9,N/A,,Clear,340,2014-04-27 00:54:00
9:54 PM,50.0,30.0,46,29.94,10.0,NW,5.8,-,N/A,,Mostly Cloudy,310,2014-04-27 01:54:00
10:54 PM,50.0,30.9,48,29.95,10.0,NNW,8.1,-,N/A,,Overcast,340,2014-04-27 02:54:00
11:54 PM,48.9,33.1,54,29.96,10.0,NW,9.2,-,N/A,,Overcast,320,2014-04-27 03:54:00